Location: Bartshausen
(51.8454°N, 9.8167°E)
Time: 06:34:15
(UTC+00:00)

Cosmos 2061 Rocket - Pass Details

Date: 08 November 2025
Orbit: 964 x 1012 km, 82.9° (Epoch: 11 December)

Event Time Altitude Azimuth Distance (km) Brightness Sun altitude
Rises 04:19:13 0° 350° (N) 3,682 6.9 -20.0°
Reaches altitude 10° 04:21:46 10° 353° (N) 2,726 6.2 -19.6°
Maximum altitude 04:27:59 70° 78° (ENE) 1,026 4.3 -18.6°
Drops below altitude 10° 04:34:08 10° 162° (SSE) 2,697 6.6 -17.7°
Sets 04:36:39 0° 164° (SSE) 3,640 7.3 -17.3°
